DW0805 Ramloese DK current weather conditions

sailwx.info

Wind from 047 at 0 knots gusting 5

Air temperature 16.1° C
Dewpoint 15.6° C

Last reported at 2017-Jul-24 21:35 UTC.
Time now 2017-Jul-24 22:43 UTC

Location: N 56°01' E 012°05'.
View on Google Maps.

See reports from other nearby stations

  
Tides and Currents Weather Stations Pressure Air Temp Water Temp Dewpoint Dewpoint Depression Visibility Wind Speed Wind Dir Waves Ship Positions
date/time (UTC)wind fromknots sea level pressurealtimeterstation pressurevisibilityair tempwater tempwave heightnotes
2017-Jul-24 21:35 047 0 gusting 5 16.1
2017-Jul-24 21:15 059 1 gusting 2 16.1
2017-Jul-24 20:45 066 1 gusting 2 16.1
2017-Jul-24 20:35 065 16.1
2017-Jul-24 20:15 065 1 gusting 5 16.1
2017-Jul-24 20:05 064 1 gusting 5 16.7
2017-Jul-24 19:45 066 1 gusting 2 16.7
2017-Jul-24 19:35 071 0 gusting 2 16.7
2017-Jul-24 19:25 071 0 gusting 2 16.7
2017-Jul-24 19:15 073 16.7
2017-Jul-24 19:05 077 0 gusting 5 16.7
2017-Jul-24 18:55 084 0 gusting 2 16.7
2017-Jul-24 18:45 084 16.7
2017-Jul-24 18:25 085 16.7
2017-Jul-24 18:15 085 16.7
2017-Jul-24 18:05 084 16.7
2017-Jul-24 17:55 087 0 gusting 5 16.7
2017-Jul-24 17:45 090 1 gusting 5 16.7
2017-Jul-24 17:05 062 2 gusting 7 18.3
2017-Jul-24 16:55 047 3 gusting 7 18.3
2017-Jul-24 16:45 053 0 gusting 6 18.9
2017-Jul-24 16:35 050 4 gusting 7 18.9
2017-Jul-24 16:25 066 0 gusting 6 19.4
2017-Jul-24 16:15 031 4 gusting 7 20.0
2017-Jul-24 16:05 090 5 gusting 7 20.0
2017-Jul-24 15:25 089 4 gusting 6 19.4
2017-Jul-24 15:05 070 1 gusting 6 20.0
2017-Jul-24 14:55 073 4 gusting 6 19.4
2017-Jul-24 14:45 033 5 gusting 8 20.0
2017-Jul-24 14:25 063 3 gusting 7 18.9
2017-Jul-24 14:15 079 2 gusting 6 18.9
2017-Jul-24 13:55 075 3 gusting 6 18.9
2017-Jul-24 13:45 056 3 gusting 6 20.0
2017-Jul-24 13:35 028 2 gusting 5 20.0
2017-Jul-24 13:15 127 18.9
2017-Jul-24 13:05 062 19.4
2017-Jul-24 12:45 078 2 gusting 6 18.9
2017-Jul-24 12:25 039 2 gusting 6 18.9
2017-Jul-24 12:15 043 0 gusting 4 18.3
2017-Jul-24 12:05 058 1 gusting 5 17.8
2017-Jul-24 11:35 086 0 gusting 2 17.8
2017-Jul-24 11:15 088 17.2
2017-Jul-24 10:55 088 17.2
2017-Jul-24 10:45 087 17.2
2017-Jul-24 10:35 090 16.7
2017-Jul-24 10:25 090 16.1
2017-Jul-24 10:15 090 0 gusting 2 16.1
2017-Jul-24 10:05 092 0 gusting 5 16.1
2017-Jul-24 09:45 150 16.7
2017-Jul-24 09:35 149 16.7
2017-Jul-24 09:25 148 16.7
2017-Jul-24 09:05 149 16.1
2017-Jul-24 08:55 149 15.6
2017-Jul-24 08:45 148 0 gusting 2 15.6
2017-Jul-24 08:35 149 15.6
2017-Jul-24 08:05 124 15.6
2017-Jul-24 07:45 125 0 gusting 4 15.6
2017-Jul-24 07:35 125 1 gusting 2 15.6
2017-Jul-24 06:55 130 1 gusting 5 15.0
2017-Jul-24 06:45 129 0 gusting 4 15.0
2017-Jul-24 06:25 130 1 gusting 4 15.0
2017-Jul-24 06:15 130 15.0
2017-Jul-24 06:05 131 1 gusting 4 15.0
2017-Jul-24 05:55 130 1 gusting 4 14.4
2017-Jul-24 05:45 130 1 gusting 4 14.4
2017-Jul-24 05:35 130 1 gusting 2 14.4
2017-Jul-24 05:25 130 1 gusting 4 14.4
2017-Jul-24 05:05 131 14.4
2017-Jul-24 04:55 131 14.4
2017-Jul-24 04:45 132 0 gusting 4 14.4
2017-Jul-24 04:25 131 0 gusting 2 14.4
2017-Jul-24 04:15 132 1 gusting 2 14.4
2017-Jul-24 03:55 131 14.4
2017-Jul-24 03:35 132 14.4
2017-Jul-24 03:25 132 14.4
2017-Jul-24 03:15 132 14.4
2017-Jul-24 03:05 132 14.4
2017-Jul-24 02:35 132 14.4
2017-Jul-24 02:25 132 14.4
2017-Jul-24 02:05 132 0 gusting 2 14.4
2017-Jul-24 01:45 132 14.4
2017-Jul-24 01:25 133 14.4
2017-Jul-24 01:15 133 2 gusting 6 14.4
2017-Jul-24 00:45 130 1 gusting 6 14.4
2017-Jul-24 00:35 123 4 gusting 6 14.4
2017-Jul-24 00:25 135 3 gusting 6 14.4
2017-Jul-24 00:15 128 0 gusting 4 14.4
2017-Jul-24 00:05 127 2 gusting 6 14.4
2017-Jul-23 23:45 128 1 gusting 4 14.4
2017-Jul-23 23:35 132 1 gusting 6 14.4
2017-Jul-23 23:25 130 1 gusting 7 14.4
2017-Jul-23 23:15 131 2 gusting 5 14.4
2017-Jul-23 23:05 130 2 gusting 7 15.0
2017-Jul-23 22:55 148 4 gusting 10 15.0
2017-Jul-23 22:45 125 4 gusting 10 15.0
2017-Jul-23 22:35 125 4 gusting 10 15.0
2017-Jul-23 22:05 125 5 gusting 10 15.0
2017-Jul-23 21:55 128 6 gusting 10 15.0
2017-Jul-23 20:45 133 5 gusting 10 15.6
2017-Jul-23 20:35 120 4 gusting 8 15.6
2017-Jul-23 20:05 114 6 gusting 10 15.6
2017-Jul-23 19:55 136 1 gusting 6 15.6
2017-Jul-23 19:45 132 6 gusting 13 15.6
2017-Jul-23 19:35 125 4 gusting 10 15.6
2017-Jul-23 19:25 120 4 gusting 11 15.6
2017-Jul-23 19:05 124 4 gusting 13 15.6
2017-Jul-23 18:55 117 4 gusting 13 15.6
2017-Jul-23 18:35 133 7 gusting 13 15.6
2017-Jul-23 18:25 111 7 gusting 13 15.6
2017-Jul-23 18:05 134 6 gusting 13 15.6
2017-Jul-23 17:35 127 5 gusting 11 15.6
2017-Jul-23 17:25 129 6 gusting 14 15.6
2017-Jul-23 17:05 136 11 gusting 18 15.6
2017-Jul-23 16:55 142 6 gusting 13 15.6
2017-Jul-23 16:45 134 5 gusting 14 15.6
2017-Jul-23 16:35 138 6 gusting 17 15.6
2017-Jul-23 16:25 118 7 gusting 17 15.6
2017-Jul-23 16:15 116 11 gusting 19 15.6
2017-Jul-23 15:45 127 13 gusting 19 15.6
2017-Jul-23 15:35 142 9 gusting 17 15.6
2017-Jul-23 15:25 126 9 gusting 15 15.6
2017-Jul-23 14:55 127 8 gusting 19 16.1
2017-Jul-23 14:45 136 8 gusting 13 16.1
2017-Jul-23 14:05 120 6 gusting 18 16.1
2017-Jul-23 13:25 152 6 gusting 10 16.7
2017-Jul-23 13:15 149 7 gusting 14 17.2
2017-Jul-23 13:05 135 7 gusting 12 17.8
2017-Jul-23 12:55 141 9 gusting 17 18.3
2017-Jul-23 12:45 122 7 gusting 13 18.9
2017-Jul-23 12:35 133 10 gusting 17 19.4
2017-Jul-23 12:25 119 9 gusting 18 19.4
2017-Jul-23 12:15 128 10 gusting 15 19.4
2017-Jul-23 12:05 128 10 gusting 19 20.0
2017-Jul-23 11:45 127 13 gusting 20 20.6
2017-Jul-23 11:15 130 7 gusting 17 21.1
2017-Jul-23 10:55 131 10 gusting 18 21.1
2017-Jul-23 10:45 126 7 gusting 18 20.6
2017-Jul-23 10:35 130 6 gusting 19 20.6
2017-Jul-23 10:25 131 8 gusting 20 20.6
2017-Jul-23 10:15 142 13 gusting 20 21.1
2017-Jul-23 10:05 109 10 gusting 19 21.1
2017-Jul-23 09:55 120 10 gusting 17 21.1
2017-Jul-23 09:45 135 12 gusting 19 20.0
2017-Jul-23 09:35 140 9 gusting 19 20.6
2017-Jul-23 09:25 128 13 gusting 19 20.0
2017-Jul-23 09:15 138 6 gusting 18 20.0
2017-Jul-23 09:05 099 6 gusting 17 20.0
2017-Jul-23 08:55 115 10 gusting 18 20.6
2017-Jul-23 08:45 123 7 gusting 18 20.0
2017-Jul-23 07:55 143 10 gusting 14 18.3
2017-Jul-23 07:35 119 7 gusting 15 18.3
2017-Jul-23 07:15 128 10 gusting 18 17.8
2017-Jul-23 07:05 129 7 gusting 15 17.8
2017-Jul-23 06:55 127 11 gusting 17 17.2
2017-Jul-23 06:45 127 8 gusting 14 17.2
2017-Jul-23 05:55 118 8 gusting 13 16.1
2017-Jul-23 05:45 124 8 gusting 13 16.1
2017-Jul-23 05:05 126 7 gusting 13 16.1
2017-Jul-23 04:45 127 6 gusting 12 15.6
2017-Jul-23 04:35 116 7 gusting 13 15.6
2017-Jul-23 04:25 110 8 gusting 13 15.6
2017-Jul-23 04:15 110 7 gusting 13 15.6
2017-Jul-23 03:45 109 6 gusting 13 16.1
2017-Jul-23 03:35 100 6 gusting 14 16.1
2017-Jul-23 03:15 109 7 gusting 13 16.1
2017-Jul-23 03:05 082 5 gusting 14 16.1
2017-Jul-23 02:25 090 5 gusting 11 16.1
2017-Jul-23 02:05 105 6 gusting 13 16.1
2017-Jul-23 01:35 095 6 gusting 10 16.1
2017-Jul-23 01:25 098 5 gusting 10 16.1
2017-Jul-23 01:05 078 6 gusting 12 16.1
2017-Jul-23 00:45 113 7 gusting 13 16.1
2017-Jul-23 00:25 094 6 gusting 12 16.1
2017-Jul-23 00:15 097 6 gusting 10 16.1
2017-Jul-22 23:45 106 5 gusting 13 16.1
2017-Jul-22 23:35 101 4 gusting 12 16.1
2017-Jul-22 23:25 104 5 gusting 13 16.1
2017-Jul-22 23:15 104 6 gusting 12 16.1
2017-Jul-22 23:05 102 4 gusting 10 16.1
2017-Jul-22 22:55 101 6 gusting 12 16.7
2017-Jul-22 22:45 102 5 gusting 12 16.7
2017-Jul-22 22:25 104 5 gusting 12 16.7
2017-Jul-22 22:15 106 5 gusting 12 16.7
2017-Jul-22 22:05 102 5 gusting 13 16.7